Retour au catalogue

THOR AGENA B R/B

ActifPO
NORAD 741·ROCKET BODY·🇺🇸 United States

Lancé Jan 25, 1964 depuis Vandenberg Space Force Base

Loading…

Prochains Passages (prochaines 24 heures)

TLE

FraisSource: Space-Track

Époque: Sep 14, 2026, 23:21 UTC

1 00741U 64004B   26257.97344640  .00000060  00000-0  10540-3 0  9994
2 00741  81.4863  89.3820 0172293  29.0020 123.4365 13.23830294 24950

Suivez THOR AGENA B R/B en temps réel avec AllMySat

Download on the App Store